Flag for Germany Weather past 2 weeks in Coburg, Bavaria, Germany

Now
72 °F

Passing clouds.


Feels Like: 77 °F
Forecast: 56 / 80 °F
Wind: 3 mph from Northwest

Location: Bamberg

Current Time: Jul 31, 2014 at 11:56:21 AM

Latest Report: Jul 31, 2014 at 11:00 AM


Visibility: 38 mi

Pressure: 29.98 "Hg

Humidity: 54%

Dew point: 54 °F

Location of CoburgLocation

Historic Weather in Coburg — Graph

°F

Coburg temperature yesterday

Maximum temperature yesterday: 74 °F (at 1:00 PM)
Minimum temperature yesterday: 62 °F (at 2:00 AM)
Average temperature yesterday: 68 °F

Past Weeks' High & Low Weather Summary

 TemperatureHumidityPressure
High90 °F (Jul 19, 4:00 PM)100% (Jul 17, 4:00 AM)30.19 "Hg (Jul 17, 4:00 AM)
Low52 °F (Jul 25, 6:00 AM)26% (Jul 20, 4:00 PM)29.70 "Hg (Jul 29, 6:00 PM)
Average70 °F74%29.92 "Hg
* Reported Jul 16 10:00 AM — Jul 31 10:00 AM, Coburg, Weather by CustomWeather, © 2014

Note: Actual official high and low records may vary slightly from our data, if they occured in-between our weather recording intervals... More about our weather records

Advertising

Coburg weather history for previous 24 hours

 ConditionsComfort  
Time TempWeatherWind HumidityBarometerVisibility
10:00 AM
Jul 31
70 °FPassing clouds.5 mph63%29.98 "Hg28 mi
9:00 AM67 °FOvercast.3 mph79%29.98 "Hg17 mi
8:00 AM64 °FPartly sunny.3 mph86%29.97 "Hg14 mi
7:00 AM64 °FOvercast.2 mph87%29.96 "Hg14 mi
6:00 AM65 °FOvercast.2 mph85%29.95 "Hg14 mi
5:00 AM65 °FOvercast.1 mph86%29.92 "Hg13 mi
4:00 AM65 °FOvercast.2 mph84%29.92 "Hg16 mi
3:00 AM66 °FOvercast.3 mph82%29.92 "Hg19 mi
2:00 AM67 °FOvercast.3 mph79%29.92 "Hg19 mi
1:00 AM67 °FOvercast.5 mph78%29.90 "Hg18 mi
12:00 AM67 °FOvercast.5 mph79%29.90 "Hg16 mi
11:00 PM
Jul 30
68 °FOvercast.5 mph80%29.89 "Hg14 mi
10:00 PM68 °FOvercast.3 mph82%29.88 "Hg18 mi
9:00 PM69 °FOvercast.5 mph77%29.85 "Hg28 mi
8:00 PM70 °FOvercast.6 mph77%29.82 "Hg28 mi
7:00 PM73 °FOvercast.6 mph70%29.80 "Hg37 mi
6:00 PM73 °FOvercast.6 mph76%29.78 "Hg25 mi
5:00 PM73 °FOvercast.7 mph78%29.78 "Hg22 mi
4:00 PM74 °FOvercast.5 mph77%29.77 "Hg19 mi
3:00 PM72 °FOvercast.5 mph82%29.77 "Hg14 mi
2:00 PM73 °FOvercast.2 mph74%29.75 "Hg14 mi
1:00 PM74 °FOvercast.1 mph74%29.75 "Hg6 mi
12:00 PM71 °FPartly sunny.1 mph84%29.76 "Hg5 mi
11:00 AM69 °FFog.No wind86%29.77 "Hg4 mi
Weather by CustomWeather, © 2014

See weather overviewHow to use our weather pages